C6040 KSAN-KSAN

Flight info

Callsign C6040
Flight time 0h 58m
Altitude 2000
Route DCT
Aircraft H60/M-DFGHIRTUVY/S

Departure

Time 2026-05-06 11:48
Airport San Diego International Airport (KSAN)

Arrival

Time 2026-05-06 12:46
Airport San Diego International Airport (KSAN)
Time Latitude Longitude Altitude Speed Heading
2026-05-06 11:07 32.72637 -117.18074 13 ft 0 kts 200°
2026-05-06 11:39 32.72634 -117.18072 12 ft 0 kts 189°
2026-05-06 11:47 32.72626 -117.18075 35 ft 2 kts 200°
2026-05-06 11:47 32.72538 -117.18159 196 ft 37 kts 225°
2026-05-06 11:48 32.72486 -117.18667 464 ft 85 kts 263°
2026-05-06 11:48 32.72352 -117.19453 985 ft 110 kts 261°
2026-05-06 11:48 32.72211 -117.20429 1008 ft 130 kts 262°
2026-05-06 11:48 32.72108 -117.21528 1010 ft 138 kts 273°
2026-05-06 11:49 32.72223 -117.22654 998 ft 137 kts 281°
2026-05-06 11:49 32.72420 -117.23767 994 ft 138 kts 283°
2026-05-06 11:49 32.72862 -117.24793 1046 ft 152 kts 308°
2026-05-06 11:49 32.73467 -117.25839 1107 ft 153 kts 304°
2026-05-06 11:50 32.74397 -117.27109 1202 ft 155 kts 314°
2026-05-06 11:50 32.74898 -117.27727 1246 ft 151 kts 316°
2026-05-06 11:50 32.75673 -117.28517 1322 ft 150 kts 325°
2026-05-06 11:50 32.76496 -117.29338 1318 ft 154 kts 319°
2026-05-06 11:51 32.77324 -117.30155 1293 ft 156 kts 323°
2026-05-06 11:51 32.78126 -117.31003 1266 ft 157 kts 317°
2026-05-06 11:51 32.78882 -117.31934 1261 ft 155 kts 313°
2026-05-06 11:51 32.79519 -117.32943 1331 ft 150 kts 303°
2026-05-06 11:52 32.79991 -117.34040 1428 ft 148 kts 297°
2026-05-06 11:52 32.80363 -117.35157 1588 ft 141 kts 290°
2026-05-06 11:52 32.80770 -117.36190 1873 ft 128 kts 304°
2026-05-06 11:52 32.81225 -117.37025 2449 ft 121 kts 304°
2026-05-06 11:53 32.81809 -117.37772 2815 ft 126 kts 319°
2026-05-06 11:53 32.82499 -117.38539 2858 ft 145 kts 320°
2026-05-06 11:53 32.83253 -117.39376 2643 ft 154 kts 316°
2026-05-06 11:53 32.84016 -117.40260 2522 ft 151 kts 315°
2026-05-06 11:54 32.84745 -117.41130 2533 ft 145 kts 315°
2026-05-06 11:54 32.85450 -117.41979 2587 ft 144 kts 315°
2026-05-06 11:54 32.86151 -117.42818 2712 ft 136 kts 315°
2026-05-06 11:54 32.86781 -117.43576 2812 ft 122 kts 315°
2026-05-06 11:55 32.87355 -117.44273 3015 ft 117 kts 315°
2026-05-06 11:55 32.88009 -117.44965 3125 ft 144 kts 319°
2026-05-06 11:55 32.88828 -117.45831 2993 ft 165 kts 319°
2026-05-06 11:55 32.89694 -117.46741 2959 ft 169 kts 319°
2026-05-06 11:56 32.90659 -117.47567 2821 ft 173 kts 332°
2026-05-06 11:56 32.91821 -117.47993 2588 ft 171 kts 347°
2026-05-06 11:56 32.92841 -117.48264 2003 ft 136 kts 347°
2026-05-06 11:56 32.93684 -117.48497 1481 ft 114 kts 347°
2026-05-06 11:57 32.94408 -117.48705 1170 ft 100 kts 347°
2026-05-06 11:57 32.95090 -117.48907 964 ft 112 kts 347°
2026-05-06 11:57 32.95898 -117.49146 780 ft 128 kts 347°
2026-05-06 11:57 32.96807 -117.49409 737 ft 139 kts 347°
2026-05-06 11:58 32.97755 -117.49684 646 ft 140 kts 347°
2026-05-06 11:58 32.98706 -117.49959 715 ft 140 kts 347°
2026-05-06 11:58 32.99651 -117.50233 826 ft 141 kts 347°
2026-05-06 11:58 33.00185 -117.50418 812 ft 150 kts 339°
2026-05-06 11:59 33.00862 -117.51210 898 ft 130 kts 296°
2026-05-06 11:59 33.00935 -117.52311 915 ft 140 kts 259°
2026-05-06 11:59 33.00447 -117.53257 893 ft 137 kts 221°
2026-05-06 11:59 32.99569 -117.53666 871 ft 137 kts 185°
2026-05-06 12:00 32.99020 -117.53627 867 ft 139 kts 175°
2026-05-06 12:00 32.98021 -117.53456 700 ft 153 kts 170°
2026-05-06 12:00 32.96984 -117.53235 584 ft 150 kts 170°
2026-05-06 12:00 32.95980 -117.53042 512 ft 136 kts 172°
2026-05-06 12:01 32.95175 -117.52916 633 ft 101 kts 174°
2026-05-06 12:01 32.94537 -117.52843 947 ft 86 kts 174°
2026-05-06 12:01 32.93952 -117.52767 1188 ft 85 kts 174°
2026-05-06 12:01 32.93359 -117.52695 1338 ft 86 kts 174°
2026-05-06 12:02 32.92731 -117.52614 1484 ft 106 kts 174°
2026-05-06 12:02 32.91890 -117.52501 1437 ft 135 kts 174°
2026-05-06 12:02 32.90898 -117.52368 1116 ft 150 kts 174°
2026-05-06 12:02 32.89851 -117.52229 800 ft 156 kts 174°
2026-05-06 12:03 32.88777 -117.52084 567 ft 152 kts 174°
2026-05-06 12:03 32.88001 -117.51980 482 ft 150 kts 174°
2026-05-06 12:03 32.87000 -117.51846 462 ft 140 kts 174°
2026-05-06 12:03 32.86043 -117.51724 460 ft 136 kts 174°
2026-05-06 12:04 32.85118 -117.51608 539 ft 133 kts 174°
2026-05-06 12:04 32.84194 -117.51491 608 ft 133 kts 174°
2026-05-06 12:04 32.83280 -117.51374 672 ft 135 kts 174°
2026-05-06 12:04 32.82336 -117.51254 662 ft 138 kts 174°
2026-05-06 12:05 32.81431 -117.51489 676 ft 131 kts 218°
2026-05-06 12:05 32.80964 -117.52336 859 ft 126 kts 264°
2026-05-06 12:05 32.80905 -117.53388 991 ft 129 kts 271°
2026-05-06 12:05 32.80917 -117.54491 1049 ft 143 kts 271°
2026-05-06 12:06 32.80928 -117.55727 742 ft 155 kts 271°
2026-05-06 12:06 32.80937 -117.57022 460 ft 154 kts 271°
2026-05-06 12:06 32.80946 -117.58260 365 ft 147 kts 271°
2026-05-06 12:06 32.80950 -117.58830 326 ft 157 kts 271°
2026-05-06 12:07 32.80958 -117.59931 266 ft 152 kts 271°
2026-05-06 12:07 32.80966 -117.61143 257 ft 143 kts 271°
2026-05-06 12:07 32.80971 -117.62290 345 ft 137 kts 271°
2026-05-06 12:07 32.80976 -117.63421 425 ft 135 kts 271°
2026-05-06 12:08 32.81089 -117.64528 524 ft 131 kts 283°
2026-05-06 12:08 32.81280 -117.65531 825 ft 122 kts 283°
2026-05-06 12:08 32.81468 -117.66518 1076 ft 131 kts 283°
2026-05-06 12:08 32.81621 -117.67294 1032 ft 148 kts 285°
2026-05-06 12:09 32.82044 -117.68410 827 ft 149 kts 303°
2026-05-06 12:09 32.82668 -117.69370 730 ft 144 kts 309°
2026-05-06 12:09 32.83281 -117.70285 684 ft 141 kts 309°
2026-05-06 12:09 32.83883 -117.71190 675 ft 138 kts 309°
2026-05-06 12:10 32.84489 -117.72100 640 ft 140 kts 309°
2026-05-06 12:10 32.85095 -117.73013 627 ft 143 kts 309°
2026-05-06 12:10 32.85721 -117.73949 515 ft 146 kts 309°
2026-05-06 12:10 32.86359 -117.74900 390 ft 148 kts 309°
2026-05-06 12:11 32.86985 -117.75853 325 ft 145 kts 309°
2026-05-06 12:11 32.87588 -117.76795 310 ft 140 kts 309°
2026-05-06 12:11 32.88160 -117.77690 470 ft 132 kts 309°
2026-05-06 12:11 32.88610 -117.78366 597 ft 140 kts 311°
2026-05-06 12:12 32.89365 -117.79133 501 ft 143 kts 330°
2026-05-06 12:12 32.90278 -117.79573 425 ft 141 kts 348°
2026-05-06 12:12 32.91233 -117.79665 387 ft 139 kts
2026-05-06 12:12 32.92178 -117.79662 447 ft 133 kts
2026-05-06 12:13 32.93091 -117.79660 618 ft 131 kts
2026-05-06 12:13 32.94022 -117.79659 714 ft 135 kts
2026-05-06 12:13 32.94987 -117.79657 672 ft 142 kts
2026-05-06 12:13 32.95384 -117.79655 603 ft 162 kts
2026-05-06 12:14 32.96483 -117.79647 401 ft 153 kts
2026-05-06 12:14 32.97499 -117.79643 401 ft 141 kts
2026-05-06 12:14 32.98437 -117.79641 565 ft 132 kts
2026-05-06 12:14 32.99383 -117.79636 623 ft 139 kts
2026-05-06 12:15 33.00342 -117.79633 626 ft 137 kts
2026-05-06 12:15 33.01293 -117.79629 664 ft 137 kts
2026-05-06 12:15 33.02075 -117.79627 671 ft 140 kts
2026-05-06 12:15 33.03045 -117.79469 472 ft 149 kts 22°
2026-05-06 12:16 33.03817 -117.78777 506 ft 134 kts 52°
2026-05-06 12:16 33.04168 -117.77780 621 ft 131 kts 80°
2026-05-06 12:16 33.04067 -117.76700 683 ft 134 kts 111°
2026-05-06 12:16 33.03674 -117.76031 689 ft 141 kts 134°
2026-05-06 12:17 33.02955 -117.75268 749 ft 136 kts 139°
2026-05-06 12:17 33.02224 -117.74516 776 ft 139 kts 139°
2026-05-06 12:17 33.01491 -117.73760 771 ft 139 kts 139°
2026-05-06 12:17 33.00746 -117.73016 738 ft 139 kts 139°
2026-05-06 12:18 33.00146 -117.72197 754 ft 120 kts 109°
2026-05-06 12:18 33.00078 -117.71330 798 ft 99 kts 59°
2026-05-06 12:18 33.00538 -117.70948 898 ft 73 kts 330°
2026-05-06 12:18 33.01060 -117.71107 928 ft 82 kts
2026-05-06 12:19 33.01407 -117.70951 945 ft 39 kts 125°
2026-05-06 12:19 33.01393 -117.70444 818 ft 89 kts 100°
2026-05-06 12:19 33.01234 -117.69561 779 ft 123 kts 102°
2026-05-06 12:19 33.01057 -117.68534 662 ft 130 kts 99°
2026-05-06 12:20 33.00908 -117.67456 536 ft 134 kts 99°
2026-05-06 12:20 33.00829 -117.66466 306 ft 107 kts 90°
2026-05-06 12:20 33.00615 -117.65857 289 ft 61 kts 178°
2026-05-06 12:20 33.00434 -117.66060 280 ft 38 kts 279°
2026-05-06 12:21 33.00519 -117.66309 292 ft 34 kts 284°
2026-05-06 12:21 33.00589 -117.66530 309 ft 16 kts 285°
2026-05-06 12:21 33.00619 -117.66625 240 ft 10 kts 285°
2026-05-06 12:21 33.00649 -117.66709 152 ft 8 kts 285°
2026-05-06 12:22 33.00658 -117.66739 121 ft 4 kts 285°
2026-05-06 12:22 33.00672 -117.66769 155 ft 7 kts 285°
2026-05-06 12:22 33.00698 -117.66822 204 ft 8 kts 285°
2026-05-06 12:22 33.00741 -117.66910 241 ft 15 kts 323°
2026-05-06 12:23 33.00864 -117.66963 205 ft 26 kts 57°
2026-05-06 12:23 33.00939 -117.66750 221 ft 21 kts 56°
2026-05-06 12:23 33.00948 -117.66695 149 ft 7 kts 57°
2026-05-06 12:23 33.00927 -117.66656 86 ft 7 kts 57°
2026-05-06 12:24 33.00921 -117.66658 66 ft 7 kts 57°
2026-05-06 12:24 33.00957 -117.66665 99 ft 0 kts 58°
2026-05-06 12:24 33.00957 -117.66664 54 ft 1 kts 58°
2026-05-06 12:24 33.00958 -117.66664 29 ft 0 kts 58°
2026-05-06 12:25 33.00958 -117.66665 57 ft 1 kts 58°
2026-05-06 12:25 33.00949 -117.66663 59 ft 2 kts 58°
2026-05-06 12:25 33.00943 -117.66670 60 ft 0 kts 45°
2026-05-06 12:25 33.00930 -117.66651 63 ft 4 kts 29°
2026-05-06 12:26 33.00928 -117.66649 60 ft 1 kts 29°
2026-05-06 12:27 33.00928 -117.66650 65 ft 0 kts 29°
2026-05-06 12:27 33.00928 -117.66649 65 ft 1 kts 29°
2026-05-06 12:28 33.00928 -117.66650 65 ft 1 kts 29°
2026-05-06 12:28 33.01030 -117.66583 225 ft 39 kts 29°
2026-05-06 12:28 33.01173 -117.66154 212 ft 93 kts 129°
2026-05-06 12:29 33.00699 -117.65408 205 ft 121 kts 126°
2026-05-06 12:29 33.00200 -117.64603 203 ft 120 kts 126°
2026-05-06 12:29 32.99704 -117.63800 207 ft 120 kts 126°
2026-05-06 12:29 32.99214 -117.63009 207 ft 120 kts 126°
2026-05-06 12:30 32.98719 -117.62209 203 ft 120 kts 126°
2026-05-06 12:30 32.98223 -117.61408 205 ft 120 kts 126°
2026-05-06 12:30 32.97727 -117.60607 200 ft 120 kts 126°
2026-05-06 12:30 32.97232 -117.59808 200 ft 120 kts 126°
2026-05-06 12:31 32.96737 -117.59008 200 ft 120 kts 126°
2026-05-06 12:31 32.96240 -117.58206 204 ft 120 kts 126°
2026-05-06 12:31 32.95745 -117.57406 203 ft 120 kts 126°
2026-05-06 12:31 32.95249 -117.56606 205 ft 120 kts 126°
2026-05-06 12:32 32.94752 -117.55805 206 ft 120 kts 126°
2026-05-06 12:32 32.94255 -117.55003 200 ft 120 kts 126°
2026-05-06 12:32 32.93758 -117.54203 200 ft 120 kts 126°
2026-05-06 12:32 32.93268 -117.53411 203 ft 120 kts 126°
2026-05-06 12:33 32.92771 -117.52608 199 ft 121 kts 126°
2026-05-06 12:33 32.92274 -117.51804 200 ft 121 kts 126°
2026-05-06 12:33 32.91776 -117.50998 202 ft 121 kts 126°
2026-05-06 12:33 32.91277 -117.50191 204 ft 121 kts 126°
2026-05-06 12:34 32.90781 -117.49389 200 ft 121 kts 126°
2026-05-06 12:34 32.90290 -117.48595 200 ft 121 kts 126°
2026-05-06 12:34 32.89954 -117.48053 203 ft 121 kts 126°
2026-05-06 12:34 32.89297 -117.46989 200 ft 121 kts 126°
2026-05-06 12:35 32.88799 -117.46184 203 ft 121 kts 126°
2026-05-06 12:35 32.88463 -117.45640 200 ft 121 kts 126°
2026-05-06 12:35 32.87972 -117.44847 209 ft 121 kts 126°
2026-05-06 12:35 32.87476 -117.44044 200 ft 121 kts 126°
2026-05-06 12:36 32.86978 -117.43239 200 ft 121 kts 126°
2026-05-06 12:36 32.86480 -117.42434 200 ft 121 kts 126°
2026-05-06 12:36 32.85983 -117.41628 200 ft 121 kts 126°
2026-05-06 12:36 32.85487 -117.40824 200 ft 120 kts 126°
2026-05-06 12:37 32.84990 -117.40019 200 ft 121 kts 126°
2026-05-06 12:37 32.84500 -117.39225 200 ft 121 kts 126°
2026-05-06 12:37 32.84004 -117.38421 200 ft 121 kts 126°
2026-05-06 12:37 32.83508 -117.37617 200 ft 121 kts 126°
2026-05-06 12:38 32.83013 -117.36811 201 ft 120 kts 126°
2026-05-06 12:38 32.82542 -117.35990 201 ft 120 kts 124°
2026-05-06 12:38 32.82075 -117.35162 199 ft 120 kts 126°
2026-05-06 12:38 32.81588 -117.34353 207 ft 119 kts 126°
2026-05-06 12:39 32.81225 -117.33539 307 ft 106 kts 114°
2026-05-06 12:39 32.80951 -117.32765 437 ft 97 kts 114°
2026-05-06 12:39 32.80915 -117.32668 452 ft 96 kts 114°
2026-05-06 12:40 32.80868 -117.32536 462 ft 95 kts 114°
2026-05-06 12:40 32.80611 -117.31825 520 ft 92 kts 114°
2026-05-06 12:40 32.80364 -117.31135 592 ft 89 kts 114°
2026-05-06 12:41 32.80144 -117.30527 605 ft 89 kts 114°
2026-05-06 12:41 32.80110 -117.30431 604 ft 91 kts 114°
2026-05-06 12:41 32.79821 -117.29645 510 ft 111 kts 114°
2026-05-06 12:42 32.79505 -117.28787 469 ft 116 kts 114°
2026-05-06 12:42 32.79176 -117.27899 415 ft 115 kts 114°
2026-05-06 12:42 32.78863 -117.27051 457 ft 113 kts 114°
2026-05-06 12:42 32.78545 -117.26198 475 ft 111 kts 114°
2026-05-06 12:43 32.78234 -117.25376 512 ft 108 kts 114°
2026-05-06 12:43 32.77927 -117.24566 529 ft 108 kts 114°
2026-05-06 12:43 32.77622 -117.23757 501 ft 105 kts 114°
2026-05-06 12:43 32.77380 -117.22995 476 ft 92 kts 110°
2026-05-06 12:44 32.77184 -117.22275 529 ft 92 kts 108°
2026-05-06 12:44 32.76993 -117.21544 504 ft 92 kts 108°
2026-05-06 12:44 32.76814 -117.20872 457 ft 78 kts 108°
2026-05-06 12:44 32.76646 -117.20277 503 ft 74 kts 108°
2026-05-06 12:45 32.76465 -117.19726 519 ft 71 kts 108°
2026-05-06 12:45 32.76277 -117.19175 546 ft 73 kts 108°
2026-05-06 12:45 32.75909 -117.18040 577 ft 76 kts 108°
2026-05-06 12:46 32.75685 -117.17500 548 ft 71 kts 123°
2026-05-06 12:46 32.75463 -117.17093 511 ft 45 kts 98°
2026-05-06 12:46 32.75431 -117.16812 480 ft 21 kts 98°
2026-05-06 12:46 32.75437 -117.16706 410 ft 11 kts 98°
2026-05-06 12:47 32.75432 -117.16647 388 ft 8 kts 98°
2026-05-06 12:47 32.75434 -117.16597 373 ft 2 kts 32°
2026-05-06 12:47 32.75435 -117.16586 355 ft 3 kts 32°
2026-05-06 12:47 32.75434 -117.16587 355 ft 0 kts 32°
2026-05-06 12:50 32.75437 -117.16587 368 ft 1 kts 143°
2026-05-06 12:50 32.75430 -117.16587 376 ft 5 kts 185°
2026-05-06 12:50 32.75393 -117.16599 380 ft 5 kts 185°
2026-05-06 12:50 32.75214 -117.16642 480 ft 50 kts 186°
2026-05-06 12:51 32.74705 -117.16958 663 ft 104 kts 207°
2026-05-06 12:51 32.74014 -117.17243 726 ft 103 kts 201°
2026-05-06 12:51 32.73418 -117.17594 575 ft 86 kts 207°
2026-05-06 12:51 32.72967 -117.17880 364 ft 61 kts 204°
2026-05-06 12:52 32.72765 -117.17999 274 ft 5 kts 198°
2026-05-06 12:52 32.72719 -117.18027 154 ft 10 kts 197°
2026-05-06 12:52 32.72676 -117.18053 46 ft 5 kts 198°
2026-05-06 12:52 32.72652 -117.18062 44 ft 5 kts 197°
2026-05-06 12:53 32.72637 -117.18069 13 ft 0 kts 201°
2026-05-06 12:55 32.72631 -117.18084 13 ft 2 kts 268°
2026-05-06 12:55 32.72626 -117.18102 13 ft 2 kts 247°
2026-05-06 12:55 32.72617 -117.18117 13 ft 2 kts 269°
2026-05-06 12:55 32.72622 -117.18135 13 ft 2 kts 287°
2026-05-06 12:56 32.72628 -117.18153 13 ft 2 kts 291°
2026-05-06 12:56 32.72633 -117.18169 13 ft 1 kts 290°
2026-05-06 12:56 32.72634 -117.18173 13 ft 1 kts 290°
2026-05-06 12:56 32.72634 -117.18175 13 ft 0 kts 290°